Weather History for Sheridan, WY

Change the Weather History Date:

Tuesday, November 19, 2013

  Actual Average Record
Temperature  
Mean Temperature 45 °F 31 °F  
Max Temperature 59 °F 44 °F 73 °F (1936)
Min Temperature 30 °F 18 °F -12 °F (1978)
Degree Days  
Heating Degree Days 20 34  
Month to date heating degree days 539 565  
Since 1 July heating degree days 1401 1473  
Cooling Degree Days 0 0  
Month to date cooling degree days 0 0  
Year to date cooling degree days 592 419  
Moisture  
Dew Point 27 °F    
Average Humidity 53    
Maximum Humidity 75    
Minimum Humidity 31    
Precipitation  
Precipitation 0.00 in 0.03 in 0.85 in (1942)
Month to date precipitation 0.09 0.48  
Year to date precipitation 16.81 13.37  
Sea Level Pressure  
Sea Level Pressure 29.66 in    
Wind  
Wind Speed 4 mph (WSW)    
Max Wind Speed 17 mph    
Max Gust Speed 21 mph    
Visibility 10 miles    
Events      
T = Trace of Precipitation, MM = Missing Value Source: NWS Daily Summary

Daily Weather History Graph

Daily Weather History Graph

Search for Another Location

Airport:

Trip Planner

Search our weather history database for the weather conditions in past years. The results will help you decide how hot, cold, wet, or windy it might be!

Date:

Astronomy

Nov. 19, 2013 Rise Set
Actual Time 7:10 AM MST 4:35 PM MST
Civil Twilight 6:38 AM MST 5:07 PM MST
Nautical Twilight 6:02 AM MST 5:43 PM MST
Astronomical Twilight 5:28 AM MST 6:18 PM MST
Moon 6:28 PM MST (11/19) 8:53 AM MST (11/19)
Length of Visible Light 10h 29m
Length of Day
9h 25m
Waning Gibbous, 96% of the Moon is Illuminated
Nov 19
Waning Gibbous
Nov 25
Last Quarter
Dec 2
New
Dec 9
First Quarter
Dec 17
Full

Hourly Weather History & Observations

Time (MST) Temp. Windchill Dew Point Humidity Pressure Visibility Wind Dir Wind Speed Gust Speed Precip Events Conditions
12:53 AM 35.1 °F 28.6 °F 27.0 °F 72% 29.74 in 10.0 mi WNW 8.1 mph - N/A   Clear
1:53 AM 33.1 °F 27.7 °F 26.1 °F 75% 29.72 in 10.0 mi SE 5.8 mph - N/A   Clear
2:53 AM 33.1 °F 30.0 °F 26.1 °F 75% 29.71 in 10.0 mi WNW 3.5 mph - N/A   Clear
3:53 AM 33.1 °F - 27.0 °F 78% 29.71 in 10.0 mi North - - N/A   Clear
4:53 AM 34.0 °F - 26.1 °F 73% 29.70 in 10.0 mi Calm Calm - N/A   Clear
5:53 AM 34.0 °F 31.0 °F 27.0 °F 75% 29.68 in 10.0 mi Variable 3.5 mph - N/A   Clear
6:53 AM 35.1 °F 32.2 °F 27.0 °F 72% 29.67 in 10.0 mi Variable 3.5 mph - N/A   Clear
7:53 AM 37.9 °F 32.7 °F 26.1 °F 62% 29.67 in 10.0 mi West 6.9 mph - N/A   Clear
8:53 AM 41.0 °F - 26.1 °F 55% 29.66 in 10.0 mi Calm Calm - N/A   Clear
9:53 AM 43.0 °F 40.3 °F 28.9 °F 58% 29.65 in 10.0 mi NW 4.6 mph - N/A   Clear
10:53 AM 46.0 °F - 30.0 °F 54% 29.65 in 10.0 mi Calm Calm - N/A   Clear
11:53 AM 54.0 °F - 28.9 °F 38% 29.60 in 10.0 mi NNE 4.6 mph - N/A   Clear
12:53 PM 59.0 °F - 28.0 °F 31% 29.58 in 10.0 mi Calm Calm - N/A   Clear
1:53 PM 57.0 °F - 28.9 °F 34% 29.58 in 10.0 mi ESE 3.5 mph - N/A   Clear
2:53 PM 55.9 °F - 27.0 °F 33% 29.59 in 10.0 mi East 4.6 mph - N/A   Clear
3:53 PM 51.1 °F - 28.0 °F 41% 29.61 in 10.0 mi West 9.2 mph - N/A   Clear
4:53 PM 44.1 °F - 27.0 °F 51% 29.64 in 10.0 mi Calm Calm - N/A   Clear
5:53 PM 42.1 °F - 28.0 °F 58% 29.67 in 10.0 mi Calm Calm - N/A   Clear
6:53 PM 37.0 °F 33.3 °F 28.9 °F 73% 29.68 in 10.0 mi SW 4.6 mph - N/A   Clear
7:53 PM 39.9 °F 35.1 °F 27.0 °F 60% 29.66 in 10.0 mi South 6.9 mph - N/A   Clear
8:53 PM 37.0 °F 32.4 °F 27.0 °F 67% 29.68 in 10.0 mi Variable 5.8 mph - N/A   Clear
9:53 PM 34.0 °F 28.0 °F 25.0 °F 70% 29.70 in 10.0 mi SSW 6.9 mph - N/A   Clear
10:53 PM 35.1 °F 30.1 °F 24.1 °F 64% 29.68 in 10.0 mi South 5.8 mph - N/A   Clear
11:53 PM 37.9 °F 35.5 °F 24.1 °F 57% 29.67 in 10.0 mi WNW 3.5 mph - N/A   Clear